This demonstration page uses our WeatherBlox Daily Observations layout. Learn more.

38.88101, -77.10428

Hourly Observations for October 30, 2017

Temp ( °F °C ) Dew Point ( °F °C ) Humidity (%) Winds ( mph kmh ) Pressure ( in mb ) Visibility ( mi km ) Precip ( " mm )
12:27 am 00:27 Cloudy with Light Rain 47 8.3 43 6.1 86 86 WNW 21 33 29.26 991 10 16.0934 0.03 0.762
12:52 am 00:52 Cloudy with Light Rain 47 8.3 42 5.6 83 83 WNW 22 35 29.27 991 10 16.0934 0.04 1.016
1:52 am 01:52 Cloudy with Light Rain 46 7.8 42 5.6 86 86 WNW 22 35 29.3 992 10 16.0934 0.01 0.254
2:52 am 02:52 Cloudy with Light Rain 46 7.8 42 5.6 86 86 WNW 16 26 29.36 994 10 16.0934 0.03 0.762
3:52 am 03:52 Cloudy with Light Rain 46 7.8 41 5 83 83 W 15 24 29.41 996 10 16.0934 0.03 0.762
4:52 am 04:52 Cloudy with Light Rain 46 7.8 39 3.9 77 77 WNW 16 26 29.46 998 10 16.0934 0.02 0.508
5:52 am 05:52 Cloudy 48 8.9 37 2.8 66 66 WNW 18 30 29.51 999 10 16.0934 0 0.0254
6:52 am 06:52 Cloudy 48 8.9 37 2.8 66 66 WNW 16 26 29.54 1000 10 16.0934 0 0
7:52 am 07:52 Partly Cloudy 48 8.9 36 2.2 63 63 WNW 15 24 29.6 1003 10 16.0934 0 0
8:52 am 08:52 Mostly Cloudy 49 9.4 35 1.7 59 59 W 15 24 29.67 1005 10 16.0934 0 0
9:52 am 09:52 Mostly Cloudy 49 9.4 33 0.6 55 55 W 16 26 29.72 1007 10 16.0934 0 0
10:52 am 10:52 Mostly Cloudy 50 10 32 0 50 50 WNW 16 26 29.75 1008 10 16.0934 0 0
11:52 am 11:52 Mostly Sunny 53 11.7 33 0.6 47 47 WNW 15 24 29.77 1008 10 16.0934 0 0
12:52 pm 12:52 Mostly Sunny 55 12.8 32 0 42 42 W 13 20 29.8 1009 10 16.0934 0 0
1:52 pm 13:52 Mostly Sunny 57 13.9 30 -1.1 36 36 WSW 13 20 29.8 1009 10 16.0934 0 0
2:52 pm 14:52 Sunny 58 14.4 31 -0.6 36 36 SW 16 26 29.79 1009 10 16.0934 0 0
3:52 pm 15:52 Mostly Sunny 59 15 31 -0.6 35 35 W 14 22 29.81 1010 10 16.0934 0 0
4:52 pm 16:52 Mostly Sunny 59 15 31 -0.6 35 35 SW 9 15 29.81 1010 10 16.0934 0 0
5:52 pm 17:52 Mostly Sunny 57 13.9 33 0.6 41 41 SW 8 13 29.84 1011 10 16.0934 0 0
6:52 pm 18:52 Mostly Clear 54 12.2 37 2.8 53 53 S 7 11 29.86 1011 10 16.0934 0 0
7:52 pm 19:52 Mostly Clear 53 11.7 38 3.3 57 57 S 10 17 29.88 1012 10 16.0934 0 0
8:52 pm 20:52 Clear 53 11.7 39 3.9 59 59 S 12 19 29.89 1012 10 16.0934 0 0
9:52 pm 21:52 Clear 51 10.6 40 4.4 66 66 SSW 10 17 29.91 1013 10 16.0934 0 0
10:52 pm 22:52 Clear 51 10.6 40 4.4 66 66 S 12 19 29.91 1013 10 16.0934 0 0
11:52 pm 23:52 Clear 51 10.6 38 3.3 61 61 SSW 10 17 29.93 1013 10 16.0934 0 0

Powered by AerisWeather